This demonstration page uses our WeatherBlox Daily Observations layout. Learn more.

Left ArrowRight Arrow

39.95238, -75.16362

Hourly Observations for April 9, 2015

Temp ( °F °C ) Dew Point ( °F °C ) Humidity (%) Winds ( mph kmh ) Pressure ( in mb ) Visibility ( mi km ) Precip ( " mm )
12:35 am 00:35 Cloudy 40 4.4 36 2.2 86 86 NE 12 19 30.24 1024 7 11 0.00 0.00
12:42 am 00:42 Cloudy 40 4.4 36 2.2 86 86 NE 12 19 30.24 1024 10 16 0.00 0.00
12:54 am 00:54 Cloudy 40 4.4 36 2.2 86 86 ENE 8 13 30.24 1024 10 16 0.00 0.00
1:23 am 01:23 Cloudy 40 4.4 37 2.8 89 89 ENE 8 13 30.24 1024 7 11 0.00 0.00
1:27 am 01:27 Cloudy with Mist and Fog 39 4 37 3 93 93 ENE 8 13 30.24 1024 5 8 0.00 0.00
1:43 am 01:43 Cloudy with Mist and Fog 40 4.4 37 2.8 89 89 NNE 7 11 30.24 1024 3 5 0.00 0.00
1:54 am 01:54 Cloudy with Mist and Fog 40 4.4 38 3.3 93 93 NE 8 13 30.24 1024 3 5 0.00 0.00
2:00 am 02:00 Cloudy with Drizzle 39 4 37 3 93 93 ENE 8 13 30.24 1024 3 4 0.00 0.00
2:30 am 02:30 Cloudy with Mist and Fog 40 4.4 37 2.8 89 89 ENE 9 15 30.21 1023 4 6 0.00 0.03
2:54 am 02:54 Cloudy with Mist and Fog 40 4.4 37 2.8 89 89 ENE 9 15 30.20 1023 4 6 0.00 0.03
3:15 am 03:15 Cloudy with Mist and Fog 40 4.4 37 2.8 89 89 ENE 8 13 30.21 1023 6 10 0.00 0.00
3:30 am 03:30 Cloudy 40 4.4 37 2.8 89 89 NNE 6 9 30.21 1023 8 13 0.00 0.00
3:54 am 03:54 Cloudy 40 4.4 37 2.8 89 89 ENE 9 15 30.22 1023 8 13 0.00 0.00
4:20 am 04:20 Cloudy 40 4.4 37 2.8 89 89 NE 9 15 30.21 1023 10 16 0.00 0.00
4:54 am 04:54 Cloudy 40 4.4 37 2.8 89 89 NE 9 15 30.23 1024 10 16 0.00 0.00
5:47 am 05:47 Cloudy 39 3.9 37 2.8 93 93 NNE 7 11 30.24 1024 7 11 0.00 0.00
5:54 am 05:54 Cloudy 39 3.9 37 2.8 93 93 NE 8 13 30.25 1024 7 11 0.00 0.00
6:21 am 06:21 Cloudy with Mist and Fog 39 3.9 37 2.8 93 93 ENE 6 9 30.24 1024 5 8 0.00 0.00
6:54 am 06:54 Cloudy with Drizzle 39 3.9 38 3.3 96 96 NE 7 11 30.25 1025 5 8 0.00 0.03
7:17 am 07:17 Cloudy with Drizzle 39 3.9 37 2.8 93 93 ENE 8 13 30.27 1025 5 8 0.00 0.03
7:33 am 07:33 Cloudy with Drizzle 40 4.4 37 2.8 89 89 E 9 15 30.24 1024 4 6 0.00 0.03
7:54 am 07:54 Cloudy with Drizzle 40 4.4 38 3.3 93 93 E 12 19 30.25 1024 3 5 0.00 0.03
8:12 am 08:12 Cloudy with Drizzle 39 4 37 3 93 93 ENE 12 19 30.27 1025 6 10 0.00 0.00
8:37 am 08:37 Cloudy 40 4.4 37 2.8 89 89 NE 12 19 30.27 1025 7 11 0.00 0.03
8:54 am 08:54 Cloudy 40 4.4 37 2.8 89 89 ENE 12 19 30.26 1025 7 11 0.00 0.03
9:54 am 09:54 Cloudy 40 4.4 37 2.8 89 89 NE 12 19 30.29 1026 8 13 0.00 0.00
10:54 am 10:54 Cloudy 40 4.4 37 2.8 89 89 ENE 10 17 30.31 1026 10 16 0.00 0.00
11:14 am 11:14 Cloudy 39 4 37 3 93 93 ENE 10 17 30.30 1026 10 16 0.00 0.00
11:54 am 11:54 Cloudy 41 5 37 2.8 86 86 ENE 10 17 30.30 1026 10 16 0.00 0.00
12:54 pm 12:54 Cloudy 41 5 38 3.3 89 89 E 13 20 30.30 1026 10 16 0.00 0.00
1:54 pm 13:54 Cloudy 42 5.6 38 3.3 85 85 E 10 17 30.31 1026 10 16 0.00 0.00
2:54 pm 14:54 Cloudy 42 5.6 38 3.3 85 85 E 9 15 30.29 1026 10 16 0.00 0.00
3:54 pm 15:54 Cloudy 42 5.6 38 3.3 85 85 E 9 15 30.29 1026 10 16 0.00 0.00
4:54 pm 16:54 Cloudy 42 5.6 38 3.3 85 85 E 13 20 30.27 1025 10 16 0.00 0.00
5:54 pm 17:54 Cloudy 42 5.6 37 2.8 82 82 E 13 20 30.26 1025 10 16 0.00 0.00
6:54 pm 18:54 Cloudy 42 5.6 37 2.8 82 82 E 10 17 30.27 1025 10 16 0.00 0.00
7:54 pm 19:54 Cloudy 42 5.6 37 2.8 82 82 E 14 22 30.26 1025 10 16 0.00 0.00
8:54 pm 20:54 Cloudy 42 5.6 37 2.8 82 82 E 10 17 30.27 1025 10 16 0.00 0.00
9:34 pm 21:34 Cloudy 42 5.6 37 2.8 82 82 ESE 16 26 30.24 1024 10 16 0.00 0.00
9:54 pm 21:54 Cloudy 41 5 37 2.8 86 86 E 14 22 30.25 1024 10 16 0.00 0.00
10:40 pm 22:40 Cloudy with Drizzle 41 5 38 3.3 89 89 E 9 15 30.27 1025 5 8 0.00 0.03
10:47 pm 22:47 Cloudy with Drizzle 41 5 38 3.3 89 89 E 8 13 30.27 1025 4 6 0.00 0.03
10:54 pm 22:54 Cloudy with Drizzle 41 5 38 3.3 89 89 E 5 7 30.26 1025 4 6 0.00 0.03
11:25 pm 23:25 Cloudy with Drizzle 41 5 39 3.9 93 93 ENE 5 7 30.27 1025 2 3 0.00 0.03
11:54 pm 23:54 Cloudy with Drizzle 41 5 39 3.9 93 93 NE 5 7 30.24 1024 3 4 0.01 0.25

Powered by AerisWeather